User: anonymous   Login
Location: Cronhütte
(48.9135°N, 9.6869°E)
Time: 20:04:12
(UTC+00:00)
Language:

Cosmos 1908 Rocket - Orbit

View from above orbital plane
View from above orbital plane
View from above satellite
View from above satellite

Ground track
Ground track

The orbit data is extracted from the following two-line orbital elements,

1 18749U 88001B   24207.01826622  .00001002  00000-0  11599-3 0  9999
2 18749  82.5127  32.4956 0019349  40.8064 319.4596 14.84418416954054
Epoch (UTC): 25 July 2024 00:26:18
Eccentricity: 0.0019349
inclination: 82.5127°
perigee height: 602 km
apogee height: 629 km
right ascension of ascending node: 32.4956°
argument of perigee: 40.8064°
revolutions per day: 14.84418416
mean anomaly at epoch: 319.4596°
orbit number at epoch: 95405

The dashed part of the orbit path shows where the satellite is in the earth's shadow,  

DLR